Back to Top

Language: 

My Weather Underground Personal Weather Station Historical Data with Graphs...

Delerius Weather Station Historical Data
Daily Summary for May 12, 2017 Units:  Metric    English   Both
« Previous Day
Next Day »
Daily Weekly Monthly Yearly Custom
  High: Low: Average:
Temperature: 16.1 °C 8.3 °C 11.6 °C
Dew Point: 12.7 °C 6.4 °C 9.4 °C
Humidity: 91 % 76 % 87 %
Wind Speed: 16.1 km/h 0 km/h 4.2 km/h
Wind Gust: 29 km/h - -
Wind:- - SE
Pressure: 997.5 hPa 995.5 hPa -
Precipitation: 0.25 mm    
Historical Graphs
 
 
Tabular Data for May 12, 2017
Time Temperature Dew Point Pressure Wind Wind Speed Wind Gust Humidity Rainfall Rate (Hourly) solar Conditions
00:01 9.4 °C 6.7 °C 996.8 hPa NE 3.2 km/h 11.3 km/h 83 % 0 mm 0 W/m2
00:06 9.4 °C 6.8 °C 996.8 hPa NE 3.2 km/h 8 km/h 84 % 0 mm 0 W/m2
00:11 9.4 °C 6.8 °C 996.8 hPa NE 3.2 km/h 8 km/h 84 % 0 mm 0 W/m2
00:16 9.4 °C 6.8 °C 996.8 hPa NE 1.6 km/h 8 km/h 84 % 0 mm 0 W/m2
00:21 9.4 °C 6.8 °C 996.8 hPa NE 1.6 km/h 6.4 km/h 84 % 0 mm 0 W/m2
00:26 9.3 °C 6.7 °C 996.8 hPa NNE 4.8 km/h 11.3 km/h 84 % 0 mm 0 W/m2
00:31 9.3 °C 6.7 °C 996.8 hPa NNE 6.4 km/h 11.3 km/h 84 % 0 mm 0 W/m2
00:36 9.4 °C 6.8 °C 996.8 hPa NNE 4.8 km/h 11.3 km/h 84 % 0 mm 0 W/m2
00:41 9.3 °C 6.7 °C 996.8 hPa NNE 6.4 km/h 12.9 km/h 84 % 0 mm 0 W/m2
00:46 9.3 °C 6.7 °C 996.8 hPa NNE 6.4 km/h 12.9 km/h 84 % 0 mm 0 W/m2
00:51 9.3 °C 6.7 °C 996.5 hPa NNE 6.4 km/h 11.3 km/h 84 % 0 mm 0 W/m2
00:56 9.3 °C 6.7 °C 996.5 hPa NNE 6.4 km/h 12.9 km/h 84 % 0 mm 0 W/m2
01:01 9.2 °C 6.4 °C 996.8 hPa NNE 6.4 km/h 12.9 km/h 83 % 0 mm 0 W/m2
01:06 9.2 °C 6.4 °C 996.5 hPa NNE 6.4 km/h 12.9 km/h 83 % 0 mm 0 W/m2
01:11 9.2 °C 6.4 °C 996.5 hPa NNE 4.8 km/h 11.3 km/h 83 % 0 mm 0 W/m2
01:16 9.1 °C 6.4 °C 996.5 hPa NNE 4.8 km/h 11.3 km/h 83 % 0 mm 0 W/m2
01:21 9.1 °C 6.6 °C 996.5 hPa NNE 4.8 km/h 11.3 km/h 84 % 0 mm 0 W/m2
01:26 9.1 °C 6.6 °C 996.5 hPa NE 4.8 km/h 11.3 km/h 84 % 0 mm 0 W/m2
01:31 9.1 °C 6.7 °C 996.5 hPa NNE 6.4 km/h 14.5 km/h 85 % 0 mm 0 W/m2
01:36 9 °C 6.6 °C 996.5 hPa NNE 9.7 km/h 14.5 km/h 85 % 0 mm 0 W/m2
01:41 9 °C 6.8 °C 996.2 hPa NNE 8 km/h 14.5 km/h 86 % 0 mm 0 W/m2
01:46 9 °C 6.8 °C 996.5 hPa NNE 4.8 km/h 14.5 km/h 86 % 0 mm 0 W/m2
01:51 9 °C 6.9 °C 996.5 hPa NNE 4.8 km/h 11.3 km/h 87 % 0 mm 0 W/m2
01:56 8.9 °C 6.8 °C 996.5 hPa NNE 4.8 km/h 11.3 km/h 87 % 0 mm 0 W/m2
02:01 8.9 °C 6.8 °C 996.5 hPa NNE 3.2 km/h 11.3 km/h 87 % 0 mm 0 W/m2
02:06 8.9 °C 7 °C 996.2 hPa NNE 4.8 km/h 12.9 km/h 88 % 0 mm 0 W/m2
02:11 8.9 °C 7 °C 996.2 hPa NNE 6.4 km/h 12.9 km/h 88 % 0 mm 0 W/m2
02:16 8.8 °C 6.9 °C 996.2 hPa NNE 6.4 km/h 14.5 km/h 88 % 0 mm 0 W/m2
02:21 8.8 °C 6.9 °C 996.2 hPa NNE 4.8 km/h 14.5 km/h 88 % 0 mm 0 W/m2
02:26 8.7 °C 7 °C 996.2 hPa NNE 3.2 km/h 9.7 km/h 89 % 0 mm 0 W/m2
02:31 8.7 °C 7 °C 996.2 hPa North 3.2 km/h 9.7 km/h 89 % 0 mm 0 W/m2
02:36 8.7 °C 7 °C 996.2 hPa NNE 3.2 km/h 9.7 km/h 89 % 0 mm 0 W/m2
02:41 8.7 °C 7 °C 996.2 hPa NNE 4.8 km/h 9.7 km/h 89 % 0 mm 0 W/m2
02:46 8.7 °C 7.2 °C 996.2 hPa NNE 4.8 km/h 12.9 km/h 90 % 0 mm 0 W/m2
02:51 8.7 °C 7.2 °C 996.2 hPa NNE 4.8 km/h 12.9 km/h 90 % 0 mm 0 W/m2
02:56 8.7 °C 7.2 °C 996.2 hPa NE 4.8 km/h 9.7 km/h 90 % 0 mm 0 W/m2
03:01 8.7 °C 7.2 °C 996.2 hPa NNE 4.8 km/h 12.9 km/h 90 % 0 mm 0 W/m2
03:06 8.7 °C 7.2 °C 996.2 hPa NNE 6.4 km/h 12.9 km/h 90 % 0 mm 0 W/m2
03:11 8.6 °C 7.1 °C 996.2 hPa NNE 8 km/h 12.9 km/h 90 % 0 mm 0 W/m2
03:16 8.6 °C 7.1 °C 996.2 hPa NNE 4.8 km/h 12.9 km/h 90 % 0 mm 0 W/m2
03:21 8.6 °C 7.1 °C 996.2 hPa North 4.8 km/h 11.3 km/h 90 % 0 mm 0 W/m2
03:26 8.6 °C 7.1 °C 995.8 hPa North 6.4 km/h 11.3 km/h 90 % 0 mm 0 W/m2
03:31 8.6 °C 7.1 °C 995.8 hPa North 4.8 km/h 11.3 km/h 90 % 0 mm 0 W/m2
03:36 8.6 °C 7.1 °C 995.8 hPa North 4.8 km/h 11.3 km/h 90 % 0 mm 0 W/m2
03:41 8.6 °C 7.1 °C 995.8 hPa North 6.4 km/h 11.3 km/h 90 % 0 mm 0 W/m2
03:47 8.6 °C 6.9 °C 995.8 hPa North 6.4 km/h 14.5 km/h 89 % 0 mm 0 W/m2
03:52 8.5 °C 6.8 °C 995.8 hPa North 6.4 km/h 14.5 km/h 89 % 0 mm 0 W/m2
03:57 8.5 °C 6.8 °C 995.8 hPa North 6.4 km/h 12.9 km/h 89 % 0 mm 0 W/m2
04:02 8.5 °C 6.8 °C 995.8 hPa North 4.8 km/h 12.9 km/h 89 % 0 mm 0 W/m2
04:07 8.4 °C 6.7 °C 995.8 hPa NNW 3.2 km/h 11.3 km/h 89 % 0 mm 0 W/m2
04:12 8.4 °C 6.7 °C 995.8 hPa North 3.2 km/h 11.3 km/h 89 % 0 mm 0 W/m2
04:17 8.4 °C 6.7 °C 995.8 hPa North 3.2 km/h 11.3 km/h 89 % 0 mm 0 W/m2
04:22 8.4 °C 6.7 °C 995.8 hPa North 3.2 km/h 14.5 km/h 89 % 0 mm 0 W/m2
04:23 8.4 °C 6.8 °C 995.8 hPa North 4.8 km/h 14.5 km/h 90 % 0 mm 0 W/m2
04:28 8.3 °C 6.8 °C 995.8 hPa North 4.8 km/h 14.5 km/h 90 % 0 mm 0 W/m2
04:33 8.3 °C 6.8 °C 995.8 hPa North 8 km/h 14.5 km/h 90 % 0 mm 0 W/m2
04:38 8.3 °C 6.8 °C 995.8 hPa North 9.7 km/h 14.5 km/h 90 % 0 mm 0 W/m2
04:43 8.3 °C 6.8 °C 995.8 hPa North 9.7 km/h 16.1 km/h 90 % 0 mm 0 W/m2
04:48 8.4 °C 7 °C 995.8 hPa North 8 km/h 16.1 km/h 91 % 0 mm 0 W/m2
04:54 8.4 °C 7 °C 995.8 hPa North 4.8 km/h 12.9 km/h 91 % 0 mm 0 W/m2
04:59 8.4 °C 7 °C 995.8 hPa North 3.2 km/h 11.3 km/h 91 % 0 mm 0 W/m2
05:04 8.4 °C 7 °C 995.5 hPa NNW 3.2 km/h 11.3 km/h 91 % 0 mm 0 W/m2
05:09 8.4 °C 7 °C 995.5 hPa NNW 3.2 km/h 11.3 km/h 91 % 0 mm 0 W/m2
05:14 8.4 °C 7 °C 995.5 hPa North 1.6 km/h 11.3 km/h 91 % 0 mm 0 W/m2
05:15 8.5 °C 7.1 °C 995.5 hPa North 1.6 km/h 11.3 km/h 91 % 0 mm 0 W/m2
05:20 8.5 °C 7.1 °C 995.5 hPa NNW 3.2 km/h 11.3 km/h 91 % 0 mm 5 W/m2
05:25 8.5 °C 7.1 °C 995.5 hPa NNW 3.2 km/h 11.3 km/h 91 % 0 mm 7 W/m2
05:30 8.6 °C 7.2 °C 995.5 hPa NNW 1.6 km/h 8 km/h 91 % 0 mm 7 W/m2
05:35 8.6 °C 7.2 °C 995.8 hPa North 1.6 km/h 8 km/h 91 % 0 mm 7 W/m2
05:37 8.6 °C 7.2 °C 995.8 hPa North 1.6 km/h 8 km/h 91 % 0 mm 11 W/m2
05:42 8.6 °C 7.2 °C 995.5 hPa NNW 3.2 km/h 12.9 km/h 91 % 0 mm 16 W/m2
05:47 8.6 °C 7.2 °C 995.5 hPa NNW 4.8 km/h 16.1 km/h 91 % 0 mm 18 W/m2
05:52 8.6 °C 7.2 °C 995.5 hPa NNW 6.4 km/h 16.1 km/h 91 % 0 mm 14 W/m2
05:57 8.5 °C 7.1 °C 995.5 hPa NNW 8 km/h 14.5 km/h 91 % 0 mm 14 W/m2
06:02 8.4 °C 7 °C 995.5 hPa NNW 6.4 km/h 14.5 km/h 91 % 0 mm 14 W/m2
06:07 8.4 °C 7 °C 995.5 hPa NNW 6.4 km/h 14.5 km/h 91 % 0 mm 21 W/m2
06:12 8.4 °C 7 °C 995.8 hPa NNW 6.4 km/h 12.9 km/h 91 % 0 mm 26 W/m2
06:17 8.3 °C 6.9 °C 995.8 hPa NNW 4.8 km/h 12.9 km/h 91 % 0 mm 26 W/m2
06:22 8.3 °C 6.9 °C 995.8 hPa North 4.8 km/h 12.9 km/h 91 % 0 mm 25 W/m2
06:27 8.4 °C 7 °C 995.8 hPa NNW 6.4 km/h 12.9 km/h 91 % 0 mm 23 W/m2
06:32 8.3 °C 6.9 °C 995.8 hPa NNW 8 km/h 12.9 km/h 91 % 0 mm 23 W/m2
06:37 8.4 °C 7 °C 995.8 hPa North 6.4 km/h 11.3 km/h 91 % 0 mm 21 W/m2
06:42 8.3 °C 6.8 °C 995.8 hPa North 6.4 km/h 16.1 km/h 90 % 0 mm 25 W/m2
06:47 8.3 °C 6.8 °C 995.8 hPa NNE 6.4 km/h 16.1 km/h 90 % 0 mm 42 W/m2
06:52 8.3 °C 6.8 °C 995.8 hPa NNE 4.8 km/h 14.5 km/h 90 % 0 mm 70 W/m2
06:57 8.3 °C 6.8 °C 995.8 hPa North 6.4 km/h 12.9 km/h 90 % 0 mm 63 W/m2
07:02 8.4 °C 6.8 °C 995.8 hPa NNE 6.4 km/h 12.9 km/h 90 % 0 mm 62 W/m2
07:08 8.4 °C 6.8 °C 995.8 hPa NNE 4.8 km/h 12.9 km/h 90 % 0 mm 56 W/m2
07:13 8.4 °C 7 °C 995.8 hPa North 3.2 km/h 11.3 km/h 91 % 0 mm 74 W/m2
07:18 8.5 °C 7.1 °C 996.2 hPa North 3.2 km/h 11.3 km/h 91 % 0 mm 90 W/m2
07:23 8.5 °C 7.1 °C 996.2 hPa North 4.8 km/h 11.3 km/h 91 % 0 mm 86 W/m2
07:28 8.6 °C 7.2 °C 996.2 hPa North 6.4 km/h 11.3 km/h 91 % 0 mm 90 W/m2
07:33 8.7 °C 7.3 °C 996.2 hPa North 4.8 km/h 11.3 km/h 91 % 0 mm 83 W/m2
07:38 8.7 °C 7.2 °C 995.8 hPa North 3.2 km/h 11.3 km/h 90 % 0 mm 102 W/m2
07:43 8.8 °C 7.4 °C 995.8 hPa NNW 4.8 km/h 11.3 km/h 91 % 0 mm 86 W/m2
07:48 8.9 °C 7.3 °C 995.8 hPa NNW 4.8 km/h 12.9 km/h 90 % 0 mm 91 W/m2
07:53 9 °C 7.4 °C 995.8 hPa NNW 4.8 km/h 12.9 km/h 90 % 0 mm 104 W/m2
07:58 9 °C 7.4 °C 995.8 hPa NNW 6.4 km/h 11.3 km/h 90 % 0 mm 134 W/m2
08:03 9.1 °C 7.6 °C 995.8 hPa North 6.4 km/h 14.5 km/h 90 % 0 mm 125 W/m2
08:08 9.2 °C 7.7 °C 995.8 hPa North 4.8 km/h 14.5 km/h 90 % 0 mm 132 W/m2
08:13 9.2 °C 7.7 °C 995.8 hPa North 3.2 km/h 12.9 km/h 90 % 0 mm 127 W/m2
08:18 9.3 °C 7.7 °C 995.8 hPa North 4.8 km/h 12.9 km/h 90 % 0 mm 105 W/m2
08:23 9.3 °C 7.6 °C 995.8 hPa NNW 6.4 km/h 12.9 km/h 89 % 0 mm 97 W/m2
08:28 9.3 °C 7.6 °C 995.8 hPa NNW 4.8 km/h 11.3 km/h 89 % 0 mm 104 W/m2
08:33 9.4 °C 7.7 °C 995.8 hPa NNW 4.8 km/h 12.9 km/h 89 % 0 mm 105 W/m2
08:38 9.5 °C 7.8 °C 995.8 hPa NNW 3.2 km/h 12.9 km/h 89 % 0 mm 105 W/m2
08:43 9.6 °C 7.9 °C 995.8 hPa NNE 1.6 km/h 9.7 km/h 89 % 0 mm 107 W/m2
08:48 9.6 °C 7.9 °C 995.8 hPa Calm   6.4 km/h 89 % 0 mm 127 W/m2
08:53 9.7 °C 8 °C 995.8 hPa NNE 3.2 km/h 11.3 km/h 89 % 0 mm 116 W/m2
08:58 9.7 °C 8 °C 995.8 hPa NNE 4.8 km/h 11.3 km/h 89 % 0 mm 114 W/m2
09:03 9.7 °C 8 °C 995.8 hPa NNE 3.2 km/h 9.7 km/h 89 % 0 mm 102 W/m2
09:08 9.8 °C 8.1 °C 995.8 hPa NNW 3.2 km/h 11.3 km/h 89 % 0 mm 88 W/m2
09:13 9.8 °C 8.1 °C 995.8 hPa North 4.8 km/h 11.3 km/h 89 % 0 mm 76 W/m2
09:18 9.9 °C 8.2 °C 995.8 hPa North 3.2 km/h 9.7 km/h 89 % 0 mm 86 W/m2
09:23 9.9 °C 8.2 °C 995.8 hPa North 3.2 km/h 11.3 km/h 89 % 0 mm 90 W/m2
09:28 9.9 °C 8.3 °C 995.8 hPa North 3.2 km/h 11.3 km/h 90 % 0 mm 90 W/m2
09:33 9.9 °C 8.3 °C 995.8 hPa NNE 3.2 km/h 11.3 km/h 90 % 0 mm 116 W/m2
09:38 9.9 °C 8.3 °C 995.8 hPa NNE 4.8 km/h 12.9 km/h 90 % 0 mm 127 W/m2
09:43 9.8 °C 8.2 °C 995.8 hPa NNE 6.4 km/h 12.9 km/h 90 % 0 mm 132 W/m2
09:48 9.8 °C 8.2 °C 995.8 hPa NNE 4.8 km/h 12.9 km/h 90 % 0 mm 141 W/m2
09:54 9.8 °C 8.2 °C 995.8 hPa NE 3.2 km/h 12.9 km/h 90 % 0 mm 156 W/m2
09:59 9.9 °C 8.3 °C 995.8 hPa NE 6.4 km/h 12.9 km/h 90 % 0 mm 135 W/m2
10:04 9.9 °C 8.3 °C 995.8 hPa NNE 6.4 km/h 12.9 km/h 90 % 0 mm 134 W/m2
10:09 10 °C 8.4 °C 995.8 hPa NNE 4.8 km/h 12.9 km/h 90 % 0 mm 144 W/m2
10:14 10.1 °C 8.6 °C 995.8 hPa North 3.2 km/h 11.3 km/h 90 % 0 mm 142 W/m2
10:19 10.2 °C 8.6 °C 995.8 hPa NNE 3.2 km/h 11.3 km/h 90 % 0 mm 118 W/m2
10:24 10.2 °C 8.4 °C 995.8 hPa NNE 3.2 km/h 11.3 km/h 89 % 0 mm 121 W/m2
10:29 10.2 °C 8.4 °C 995.8 hPa NE 4.8 km/h 11.3 km/h 89 % 0 mm 105 W/m2
10:34 10.2 °C 8.4 °C 996.2 hPa NE 3.2 km/h 9.7 km/h 89 % 0 mm 109 W/m2
10:39 10.2 °C 8.6 °C 995.8 hPa NNE 3.2 km/h 11.3 km/h 90 % 0 mm 167 W/m2
10:44 10.2 °C 8.6 °C 995.8 hPa NNE 4.8 km/h 11.3 km/h 90 % 0 mm 241 W/m2
10:49 10.4 °C 9 °C 995.8 hPa NNE 1.6 km/h 8 km/h 91 % 0 mm 178 W/m2
10:54 10.5 °C 8.9 °C 995.8 hPa North 1.6 km/h 8 km/h 90 % 0 mm 153 W/m2
10:59 10.6 °C 9 °C 995.8 hPa North 3.2 km/h 9.7 km/h 90 % 0 mm 144 W/m2
11:04 10.6 °C 9 °C 995.8 hPa North 1.6 km/h 9.7 km/h 90 % 0 mm 109 W/m2
11:09 10.7 °C 9.1 °C 996.2 hPa Calm   6.4 km/h 90 % 0 mm 111 W/m2
11:14 10.8 °C 9.2 °C 996.2 hPa Calm   3.2 km/h 90 % 0 mm 102 W/m2
11:19 10.9 °C 9.3 °C 996.2 hPa Calm   3.2 km/h 90 % 0 mm 102 W/m2
11:24 10.8 °C 9.1 °C 996.2 hPa ENE 1.6 km/h 9.7 km/h 89 % 0 mm 102 W/m2
11:29 10.8 °C 9.1 °C 996.2 hPa ENE 3.2 km/h 9.7 km/h 89 % 0 mm 123 W/m2
11:34 10.9 °C 9.2 °C 996.2 hPa NE 1.6 km/h 9.7 km/h 89 % 0 mm 144 W/m2
11:39 10.9 °C 9.2 °C 996.2 hPa NE 3.2 km/h 8 km/h 89 % 0 mm 109 W/m2
11:44 11 °C 9.3 °C 996.2 hPa NE 1.6 km/h 8 km/h 89 % 0 mm 107 W/m2
11:49 11 °C 9.3 °C 996.2 hPa NE 1.6 km/h 8 km/h 89 % 0 mm 116 W/m2
11:54 11.1 °C 9.3 °C 996.2 hPa NE 1.6 km/h 4.8 km/h 89 % 0 mm 107 W/m2
11:59 11.1 °C 9.3 °C 996.2 hPa NE 1.6 km/h 6.4 km/h 89 % 0 mm 97 W/m2
12:04 11.1 °C 9.3 °C 996.2 hPa NE 3.2 km/h 6.4 km/h 89 % 0 mm 102 W/m2
12:09 11.1 °C 9.3 °C 996.2 hPa NE 1.6 km/h 6.4 km/h 89 % 0 mm 109 W/m2
12:14 11.1 °C 9.3 °C 996.2 hPa NE 1.6 km/h 8 km/h 89 % 0 mm 128 W/m2
12:19 11.1 °C 9.5 °C 996.2 hPa NE 1.6 km/h 8 km/h 90 % 0 mm 121 W/m2
12:25 11.1 °C 9.5 °C 996.2 hPa NE 1.6 km/h 6.4 km/h 90 % 0 mm 132 W/m2
12:30 11.2 °C 9.6 °C 996.2 hPa NE 1.6 km/h 6.4 km/h 90 % 0 mm 149 W/m2
12:35 11.2 °C 9.6 °C 996.2 hPa NE 1.6 km/h 6.4 km/h 90 % 0 mm 149 W/m2
12:40 11.3 °C 9.7 °C 996.2 hPa Calm   6.4 km/h 90 % 0 mm 113 W/m2
12:45 11.3 °C 9.7 °C 996.2 hPa NE 1.6 km/h 8 km/h 90 % 0 mm 130 W/m2
12:50 11.3 °C 9.7 °C 996.2 hPa NE 1.6 km/h 8 km/h 90 % 0 mm 162 W/m2
12:55 11.4 °C 9.8 °C 996.2 hPa Calm   3.2 km/h 90 % 0 mm 169 W/m2
12:57 11.4 °C 10 °C 996.2 hPa Calm   3.2 km/h 91 % 0 mm 169 W/m2
13:02 11.5 °C 9.9 °C 996.2 hPa Calm   3.2 km/h 90 % 0 mm 209 W/m2
13:07 11.7 °C 10.3 °C 996.2 hPa Calm   3.2 km/h 91 % 0.25 mm 197 W/m2
13:12 11.8 °C 10.4 °C 996.2 hPa Calm   1.6 km/h 91 % 0.25 mm 223 W/m2
13:17 11.9 °C 10.3 °C 996.2 hPa Calm   3.2 km/h 90 % 0.25 mm 216 W/m2
13:22 12.1 °C 10.5 °C 996.2 hPa East 1.6 km/h 9.7 km/h 90 % 0.25 mm 151 W/m2
13:27 12.1 °C 10.5 °C 996.2 hPa East 1.6 km/h 9.7 km/h 90 % 0.25 mm 137 W/m2
13:32 12.1 °C 10.5 °C 996.2 hPa East 3.2 km/h 8 km/h 90 % 0.25 mm 162 W/m2
13:37 12.1 °C 10.5 °C 996.2 hPa ESE 3.2 km/h 8 km/h 90 % 0.25 mm 214 W/m2
13:42 12.1 °C 10.5 °C 996.2 hPa SE 3.2 km/h 8 km/h 90 % 0.25 mm 216 W/m2
13:47 12.2 °C 10.8 °C 996.2 hPa SE 1.6 km/h 6.4 km/h 91 % 0.25 mm 207 W/m2
13:52 12.2 °C 10.8 °C 996.2 hPa SE 3.2 km/h 8 km/h 91 % 0.25 mm 211 W/m2
13:57 12.2 °C 10.6 °C 996.2 hPa SE 3.2 km/h 8 km/h 90 % 0.25 mm 176 W/m2
14:01 12.2 °C 10.6 °C 996.2 hPa SE 1.6 km/h 8 km/h 90 % 0.25 mm 160 W/m2
14:06 12.2 °C 10.6 °C 996.2 hPa SE 1.6 km/h 4.8 km/h 90 % 0 mm 178 W/m2
14:11 12.3 °C 10.7 °C 996.2 hPa SE 1.6 km/h 8 km/h 90 % 0 mm 160 W/m2
14:16 12.3 °C 10.6 °C 996.2 hPa SE 1.6 km/h 8 km/h 89 % 0 mm 158 W/m2
14:21 12.3 °C 10.7 °C 996.2 hPa SE 1.6 km/h 9.7 km/h 90 % 0 mm 128 W/m2
14:26 12.4 °C 10.8 °C 996.2 hPa SE 3.2 km/h 9.7 km/h 90 % 0 mm 100 W/m2
14:31 12.4 °C 10.8 °C 996.2 hPa SE 3.2 km/h 9.7 km/h 90 % 0 mm 102 W/m2
14:36 12.4 °C 10.8 °C 996.2 hPa SE 4.8 km/h 9.7 km/h 90 % 0 mm 113 W/m2
14:42 12.3 °C 10.6 °C 996.2 hPa SE 4.8 km/h 9.7 km/h 89 % 0 mm 127 W/m2
14:47 12.3 °C 10.7 °C 996.2 hPa SE 4.8 km/h 9.7 km/h 90 % 0 mm 139 W/m2
14:52 12.3 °C 10.7 °C 996.2 hPa SE 3.2 km/h 9.7 km/h 90 % 0 mm 135 W/m2
14:57 12.4 °C 10.8 °C 996.5 hPa SE 3.2 km/h 11.3 km/h 90 % 0 mm 125 W/m2
15:02 12.4 °C 10.6 °C 996.2 hPa SSE 4.8 km/h 14.5 km/h 89 % 0 mm 151 W/m2
15:07 12.3 °C 10.7 °C 996.2 hPa SSE 6.4 km/h 14.5 km/h 90 % 0 mm 151 W/m2
15:12 12.3 °C 10.7 °C 996.5 hPa SSE 4.8 km/h 11.3 km/h 90 % 0 mm 142 W/m2
15:17 12.3 °C 10.6 °C 996.2 hPa SSE 4.8 km/h 9.7 km/h 89 % 0 mm 179 W/m2
15:22 12.4 °C 10.8 °C 996.2 hPa South 4.8 km/h 9.7 km/h 90 % 0 mm 181 W/m2
15:27 12.6 °C 11 °C 996.2 hPa South 3.2 km/h 9.7 km/h 90 % 0 mm 141 W/m2
15:32 12.6 °C 10.8 °C 996.2 hPa South 1.6 km/h 8 km/h 89 % 0 mm 174 W/m2
15:37 12.7 °C 10.9 °C 996.5 hPa SSE 4.8 km/h 11.3 km/h 89 % 0 mm 197 W/m2
15:42 12.8 °C 11.2 °C 996.2 hPa SSE 6.4 km/h 11.3 km/h 90 % 0 mm 251 W/m2
15:47 12.9 °C 10.9 °C 996.2 hPa SSE 4.8 km/h 9.7 km/h 88 % 0 mm 246 W/m2
15:52 13 °C 11.2 °C 996.2 hPa South 3.2 km/h 9.7 km/h 89 % 0 mm 239 W/m2
15:57 13.2 °C 11.4 °C 996.2 hPa South 3.2 km/h 11.3 km/h 89 % 0 mm 295 W/m2
16:02 13.3 °C 11.3 °C 996.2 hPa SSE 3.2 km/h 11.3 km/h 88 % 0 mm 355 W/m2
16:07 13.6 °C 11.5 °C 995.8 hPa SSE 3.2 km/h 11.3 km/h 87 % 0 mm 540 W/m2
16:12 13.9 °C 11.8 °C 995.8 hPa SSE 1.6 km/h 8 km/h 87 % 0 mm 779 W/m2
16:17 14.2 °C 11.7 °C 995.8 hPa SSE 1.6 km/h 8 km/h 85 % 0 mm 318 W/m2
16:22 14.3 °C 11.4 °C 995.8 hPa South 1.6 km/h 9.7 km/h 83 % 0 mm 462 W/m2
16:27 14.4 °C 11.4 °C 995.8 hPa SSW 3.2 km/h 9.7 km/h 82 % 0 mm 244 W/m2
16:33 14.4 °C 11.4 °C 995.8 hPa SSW 1.6 km/h 9.7 km/h 82 % 0 mm 276 W/m2
16:38 14.5 °C 11.4 °C 995.8 hPa SSW 1.6 km/h 8 km/h 82 % 0 mm 279 W/m2
16:43 14.8 °C 11.8 °C 995.8 hPa SW 1.6 km/h 8 km/h 82 % 0 mm 615 W/m2
16:48 15.1 °C 11.7 °C 995.8 hPa Calm   3.2 km/h 80 % 0 mm 325 W/m2
16:53 15.2 °C 11.8 °C 995.5 hPa Calm   3.2 km/h 80 % 0 mm 598 W/m2
16:58 15.3 °C 11.7 °C 995.5 hPa Calm   3.2 km/h 79 % 0 mm 385 W/m2
17:03 15.4 °C 11.8 °C 995.5 hPa Calm   6.4 km/h 79 % 0 mm 260 W/m2
17:08 15.4 °C 11.8 °C 995.8 hPa SSW 1.6 km/h 6.4 km/h 79 % 0 mm 278 W/m2
17:13 15.6 °C 11.8 °C 995.5 hPa SSE 1.6 km/h 8 km/h 78 % 0 mm 329 W/m2
17:18 15.6 °C 11.8 °C 995.5 hPa SSE 3.2 km/h 8 km/h 78 % 0 mm 262 W/m2
17:23 15.7 °C 11.9 °C 995.5 hPa SE 3.2 km/h 9.7 km/h 78 % 0 mm 221 W/m2
17:28 15.7 °C 11.7 °C 995.8 hPa SE 4.8 km/h 11.3 km/h 77 % 0 mm 225 W/m2
17:33 15.8 °C 11.9 °C 995.8 hPa SE 3.2 km/h 11.3 km/h 78 % 0 mm 197 W/m2
17:38 15.8 °C 11.9 °C 995.8 hPa SE 1.6 km/h 8 km/h 78 % 0 mm 195 W/m2
17:43 15.9 °C 12.1 °C 995.8 hPa SE 4.8 km/h 9.7 km/h 78 % 0 mm 197 W/m2
17:48 15.9 °C 12.1 °C 995.5 hPa SE 3.2 km/h 9.7 km/h 78 % 0 mm 227 W/m2
17:53 16 °C 11.9 °C 995.5 hPa SE 1.6 km/h 8 km/h 77 % 0 mm 248 W/m2
17:58 16.1 °C 12.1 °C 995.5 hPa SE 4.8 km/h 11.3 km/h 77 % 0 mm 207 W/m2
18:00 16.1 °C 12.1 °C 995.5 hPa SE 4.8 km/h 11.3 km/h 77 % 0 mm 195 W/m2
18:05 16.1 °C 12.1 °C 995.5 hPa SE 6.4 km/h 12.9 km/h 77 % 0 mm 169 W/m2
18:10 16 °C 11.8 °C 995.5 hPa SE 6.4 km/h 12.9 km/h 76 % 0 mm 142 W/m2
18:15 16 °C 11.9 °C 995.5 hPa SE 6.4 km/h 11.3 km/h 77 % 0 mm 127 W/m2
18:20 15.9 °C 11.9 °C 995.5 hPa SE 6.4 km/h 12.9 km/h 77 % 0 mm 139 W/m2
18:26 15.9 °C 11.9 °C 995.5 hPa ESE 6.4 km/h 12.9 km/h 77 % 0 mm 155 W/m2
18:31 15.8 °C 11.8 °C 995.5 hPa ESE 6.4 km/h 11.3 km/h 77 % 0 mm 114 W/m2
18:36 15.7 °C 11.7 °C 995.8 hPa ESE 8 km/h 11.3 km/h 77 % 0 mm 104 W/m2
18:41 15.7 °C 11.9 °C 995.8 hPa ESE 6.4 km/h 11.3 km/h 78 % 0 mm 98 W/m2
18:46 15.7 °C 11.9 °C 995.8 hPa ESE 4.8 km/h 9.7 km/h 78 % 0 mm 84 W/m2
18:51 15.7 °C 11.9 °C 995.8 hPa ESE 4.8 km/h 9.7 km/h 78 % 0 mm 65 W/m2
18:56 15.7 °C 11.9 °C 995.8 hPa ESE 3.2 km/h 9.7 km/h 78 % 0 mm 54 W/m2
19:01 15.7 °C 11.9 °C 995.8 hPa ESE 3.2 km/h 9.7 km/h 78 % 0 mm 54 W/m2
19:06 15.6 °C 11.8 °C 995.8 hPa East 3.2 km/h 8 km/h 78 % 0 mm 60 W/m2
19:11 15.6 °C 11.8 °C 995.8 hPa East 3.2 km/h 8 km/h 78 % 0 mm 69 W/m2
19:16 15.6 °C 11.8 °C 996.2 hPa East 3.2 km/h 8 km/h 78 % 0 mm 76 W/m2
19:21 15.6 °C 11.8 °C 996.2 hPa ESE 3.2 km/h 8 km/h 78 % 0 mm 69 W/m2
19:26 15.6 °C 11.8 °C 996.2 hPa ESE 3.2 km/h 8 km/h 78 % 0 mm 62 W/m2
19:31 15.6 °C 11.8 °C 996.2 hPa ESE 3.2 km/h 8 km/h 78 % 0 mm 53 W/m2
19:36 15.6 °C 11.8 °C 996.2 hPa ESE 3.2 km/h 8 km/h 78 % 0 mm 49 W/m2
19:41 15.6 °C 11.9 °C 996.2 hPa ESE 3.2 km/h 8 km/h 79 % 0 mm 51 W/m2
19:46 15.6 °C 11.9 °C 996.2 hPa ESE 3.2 km/h 8 km/h 79 % 0 mm 49 W/m2
19:51 15.6 °C 11.9 °C 996.2 hPa ESE 3.2 km/h 8 km/h 79 % 0 mm 44 W/m2
19:53 15.5 °C 11.9 °C 996.2 hPa ESE 3.2 km/h 8 km/h 79 % 0 mm 37 W/m2
19:58 15.5 °C 11.9 °C 996.5 hPa ESE 3.2 km/h 8 km/h 79 % 0 mm 32 W/m2
20:04 15.5 °C 12.1 °C 996.5 hPa ESE 1.6 km/h 8 km/h 80 % 0 mm 30 W/m2
20:09 15.4 °C 11.9 °C 996.5 hPa ESE 1.6 km/h 8 km/h 80 % 0 mm 23 W/m2
20:14 15.3 °C 11.9 °C 996.5 hPa ESE 1.6 km/h 8 km/h 80 % 0 mm 19 W/m2
20:19 15.2 °C 11.9 °C 996.5 hPa East 3.2 km/h 11.3 km/h 81 % 0 mm 18 W/m2
20:24 15.1 °C 11.9 °C 996.5 hPa ENE 6.4 km/h 12.9 km/h 81 % 0 mm 9 W/m2
20:29 14.9 °C 11.8 °C 996.5 hPa ENE 6.4 km/h 12.9 km/h 82 % 0 mm 0 W/m2
20:34 14.8 °C 11.8 °C 996.5 hPa East 4.8 km/h 11.3 km/h 82 % 0 mm 0 W/m2
20:39 14.8 °C 11.9 °C 996.8 hPa East 4.8 km/h 11.3 km/h 83 % 0 mm 0 W/m2
20:44 14.7 °C 11.8 °C 996.8 hPa East 3.2 km/h 11.3 km/h 83 % 0 mm 0 W/m2
20:49 14.7 °C 11.8 °C 996.8 hPa ESE 4.8 km/h 11.3 km/h 83 % 0 mm 0 W/m2
20:54 14.7 °C 12 °C 996.8 hPa ESE 3.2 km/h 11.3 km/h 84 % 0 mm 0 W/m2
20:59 14.6 °C 11.9 °C 996.8 hPa ESE 1.6 km/h 6.4 km/h 84 % 0 mm 0 W/m2
21:04 14.5 °C 11.8 °C 996.8 hPa ESE 1.6 km/h 6.4 km/h 84 % 0 mm 0 W/m2
21:09 14.4 °C 11.9 °C 996.8 hPa ESE 1.6 km/h 9.7 km/h 85 % 0 mm 0 W/m2
21:15 14.4 °C 11.9 °C 996.8 hPa East 1.6 km/h 1.6 km/h 85 % 0 mm 0 W/m2
21:20 14.3 °C 12 °C 996.8 hPa East 1.6 km/h 1.6 km/h 86 % 0 mm 0 W/m2
21:25 14.3 °C 12 °C 997.2 hPa East 1.6 km/h 1.6 km/h 86 % 0 mm 0 W/m2
21:30 14.2 °C 12.1 °C 997.2 hPa East 3.2 km/h 8 km/h 87 % 0 mm 0 W/m2
21:35 14.2 °C 12.1 °C 997.2 hPa East 3.2 km/h 8 km/h 87 % 0 mm 0 W/m2
21:40 14.2 °C 12.1 °C 997.2 hPa East 3.2 km/h 8 km/h 87 % 0 mm 0 W/m2
21:45 14.2 °C 12.2 °C 997.2 hPa East 4.8 km/h 9.7 km/h 88 % 0 mm 0 W/m2
21:50 14.2 °C 12.2 °C 997.2 hPa ESE 3.2 km/h 9.7 km/h 88 % 0 mm 0 W/m2
21:55 14.1 °C 12.2 °C 997.2 hPa ESE 3.2 km/h 8 km/h 88 % 0 mm 0 W/m2
22:00 14.1 °C 12.3 °C 997.2 hPa ESE 4.8 km/h 9.7 km/h 89 % 0 mm 0 W/m2
22:05 14.1 °C 12.3 °C 997.2 hPa ESE 4.8 km/h 9.7 km/h 89 % 0 mm 0 W/m2
22:10 14.1 °C 12.3 °C 997.2 hPa ESE 3.2 km/h 8 km/h 89 % 0 mm 0 W/m2
22:15 14.1 °C 12.5 °C 997.2 hPa ESE 3.2 km/h 9.7 km/h 90 % 0 mm 0 W/m2
22:20 14.1 °C 12.5 °C 997.2 hPa ESE 4.8 km/h 9.7 km/h 90 % 0 mm 0 W/m2
22:25 14.1 °C 12.5 °C 997.2 hPa ESE 4.8 km/h 14.5 km/h 90 % 0 mm 0 W/m2
22:30 14.1 °C 12.5 °C 997.2 hPa ESE 4.8 km/h 14.5 km/h 90 % 0 mm 0 W/m2
22:35 14.1 °C 12.7 °C 997.2 hPa SE 4.8 km/h 9.7 km/h 91 % 0 mm 0 W/m2
22:41 14.1 °C 12.7 °C 997.2 hPa SSE 4.8 km/h 12.9 km/h 91 % 0 mm 0 W/m2
22:46 14.1 °C 12.7 °C 997.2 hPa SE 6.4 km/h 12.9 km/h 91 % 0 mm 0 W/m2
22:47 14.1 °C 12.7 °C 997.2 hPa SE 6.4 km/h 11.3 km/h 91 % 0 mm 0 W/m2
22:52 14.1 °C 12.7 °C 997.2 hPa SE 6.4 km/h 11.3 km/h 91 % 0 mm 0 W/m2
22:57 14.1 °C 12.7 °C 997.2 hPa SSE 6.4 km/h 11.3 km/h 91 % 0 mm 0 W/m2
23:02 14 °C 12.6 °C 997.2 hPa SSE 6.4 km/h 11.3 km/h 91 % 0 mm 0 W/m2
23:07 14 °C 12.6 °C 997.2 hPa SSE 6.4 km/h 11.3 km/h 91 % 0 mm 0 W/m2
23:12 13.9 °C 12.4 °C 997.2 hPa SE 6.4 km/h 12.9 km/h 91 % 0 mm 0 W/m2
23:17 13.9 °C 12.4 °C 997.2 hPa SSE 8 km/h 12.9 km/h 91 % 0 mm 0 W/m2
23:22 13.9 °C 12.4 °C 997.2 hPa SSE 8 km/h 14.5 km/h 91 % 0 mm 0 W/m2
23:27 13.9 °C 12.3 °C 997.2 hPa South 9.7 km/h 17.7 km/h 90 % 0 mm 0 W/m2
23:29 13.8 °C 12.2 °C 997.2 hPa South 9.7 km/h 17.7 km/h 90 % 0 mm 0 W/m2
23:34 13.8 °C 12 °C 997.2 hPa South 11.3 km/h 22.5 km/h 89 % 0 mm 0 W/m2
23:39 13.7 °C 11.6 °C 997.2 hPa SSW 12.9 km/h 22.5 km/h 87 % 0 mm 0 W/m2
23:44 13.7 °C 11.2 °C 997.5 hPa SSW 16.1 km/h 29 km/h 85 % 0 mm 0 W/m2
23:49 13.7 °C 11.1 °C 997.5 hPa SSW 14.5 km/h 29 km/h 84 % 0 mm 0 W/m2
23:54 13.7 °C 11.1 °C 997.5 hPa SSW 11.3 km/h 20.9 km/h 84 % 0 mm 0 W/m2
23:59 13.6 °C 10.9 °C 997.5 hPa SSW 9.7 km/h 19.3 km/h 84 % 0 mm 0 W/m2
Delerius-Weather
Compliments of Weather Underground - 2.25 mb

Data updates at regular intervals.